Flag for Myanmar Weather past 2 weeks in Yangon, Myanmar

Now
90 °F

Clear.


Feels Like: 90 °F
Forecast: 66 / 91 °F
Wind: No wind

Location: Rangoon Airport

Current Time: Jan 27, 2015 at 4:55:08 PM

Latest Report: Jan 27, 2015 at 4:30 PM


Visibility: 6 mi

Pressure: 29.86 "Hg

Humidity: 38%

Dew point: 61 °F

Location of YangonLocation

Historic Weather in Yangon — Graph

°F

Yangon temperature yesterday

Maximum temperature yesterday: 90 °F (at 3:00 PM)
Minimum temperature yesterday: 66 °F (at 7:00 AM)
Average temperature yesterday: 78 °F

Past Weeks' High & Low Weather Summary

 TemperatureHumidityPressure
High90 °F (Jan 21, 3:00 PM)100% (Jan 14, 8:30 PM)30.12 "Hg (Jan 14, 8:30 PM)
Low64 °F (Jan 24, 5:00 AM)29% (Jan 24, 3:30 PM)29.86 "Hg (Jan 12, 3:30 PM)
Average78 °F64%29.98 "Hg
* Reported Jan 12 3:30 PM — Jan 27 4:00 PM, Yangon, Weather by CustomWeather, © 2014

Note: Actual official high and low records may vary slightly from our data, if they occured in-between our weather recording intervals... More about our weather records

Advertising

Yangon weather history for previous 24 hours

 ConditionsComfort  
Time TempWeatherWind HumidityBarometerVisibility
4:00 PM
Jan 27
90 °FClear.No wind38%29.86 "Hg6 mi
3:30 PM90 °FClear.3 mph38%29.86 "Hg6 mi
3:00 PM90 °FClear.3 mph38%29.86 "Hg6 mi
2:00 PM90 °FClear.3 mph38%29.89 "Hg6 mi
1:30 PM88 °FClear.3 mph38%29.92 "Hg6 mi
1:00 PM88 °FClear.3 mph38%29.92 "Hg6 mi
12:30 PM88 °FClear.3 mph38%29.95 "Hg6 mi
12:00 PM86 °FClear.3 mph46%29.98 "Hg6 mi
11:30 AM84 °FClear.2 mph51%29.98 "Hg5 mi
11:00 AM82 °FClear.2 mph48%30.01 "Hg5 mi
10:30 AM79 °FClear.2 mph61%30.01 "Hg4 mi
10:00 AM79 °FClear.2 mph61%30.01 "Hg4 mi
9:30 AM75 °FClear.2 mph65%30.01 "Hg4 mi
9:00 AM75 °FClear.5 mph65%30.01 "Hg4 mi
8:30 AM70 °FClear.3 mph83%29.98 "Hg4 mi
8:00 AM68 °FClear.2 mph94%29.98 "Hg4 mi
7:30 AM68 °FFog.6 mph94%29.95 "Hg3 mi
7:00 AM68 °FFog.2 mph94%29.95 "Hg3 mi
6:30 AM68 °FClear.2 mph94%29.95 "Hg4 mi
6:00 AM68 °FClear.3 mph94%29.95 "Hg4 mi
5:30 AM68 °FClear.2 mph94%29.95 "Hg4 mi
5:00 AM68 °FClear.3 mph94%29.92 "Hg4 mi
4:30 AM68 °FClear.5 mph94%29.92 "Hg4 mi
4:00 AM68 °FClear.5 mph94%29.92 "Hg4 mi
11:30 PM
Jan 26
72 °FClear.2 mph73%29.98 "Hg4 mi
11:00 PM72 °FClear.2 mph73%29.98 "Hg4 mi
10:30 PM73 °FClear.2 mph65%29.98 "Hg4 mi
10:00 PM73 °FClear.2 mph65%29.98 "Hg4 mi
9:30 PM75 °FClear.3 mph65%29.98 "Hg4 mi
9:00 PM75 °FClear.2 mph65%29.98 "Hg4 mi
8:30 PM77 °FClear.3 mph54%29.98 "Hg4 mi
8:00 PM77 °FClear.5 mph54%29.98 "Hg4 mi
7:00 PM81 °FClear.3 mph54%29.95 "Hg4 mi
6:30 PM82 °FClear.3 mph45%29.92 "Hg4 mi
6:00 PM82 °FClear.3 mph45%29.92 "Hg5 mi
5:30 PM84 °FClear.6 mph40%29.92 "Hg5 mi
5:00 PM88 °FClear.6 mph38%29.92 "Hg6 mi
4:30 PM90 °FClear.6 mph38%29.89 "Hg6 mi
4:00 PM90 °FClear.6 mph38%29.89 "Hg6 mi
Weather by CustomWeather, © 2014

See weather overviewHow to use our weather pages